Location: A�t Bou Chrif
(32.7193°N, 5.2385°W)
Time: 04:09:56
(UTC+00:00)

Ariane Rocket - Pass Details

Date: 08 August 2020
Orbit: 760 x 770 km, 98.7° (Epoch: 20 September)

Event Time Altitude Azimuth Distance (km) Brightness Sun altitude
Exits shadow 20:07:49 - 166° (SSE) 2,935 5.6 -11.5°
Reaches altitude 10° 20:09:25 10° 166° (SSE) 2,293 5.1 -11.8°
Maximum altitude 20:14:28 90° 92° (E) 768 3.0 -12.7°
Drops below altitude 10° 20:19:33 10° 347° (NNW) 2,300 6.1 -13.6°
Sets 20:21:51 0° 348° (NNW) 3,229 6.9 -14.1°
